Location: Partizánske
(48.6285°N, 18.3769°E)
Time: 17:14:59
(UTC+02:00)

S-56A Canister/Altair - All Passes

Search period start: 29 June 2022 00:00
Search period end: 09 July 2022 00:00
Orbit: 636 x 2497 km, 38.9° (Epoch: 28 June)

Date Brightness Start Highest point End Pass type
(mag) Time Alt. Az. Time Alt. Az. Time Alt. Az.
29 Jun - 07:51:25 10° S 07:53:28 13° SSE 07:55:32 10° SE daylight
29 Jun - 09:52:19 10° SW 09:56:05 26° S 10:00:28 10° ESE daylight
29 Jun - 11:54:58 10° WSW 11:59:04 25° S 12:04:14 10° SE daylight
29 Jun - 13:59:35 10° SW 14:02:19 13° SSW 14:05:24 10° S daylight
30 Jun - 07:19:36 10° S 07:21:03 11° SSE 07:22:28 10° SE daylight
30 Jun - 09:20:02 10° SW 09:23:40 24° S 09:27:41 10° ESE daylight
30 Jun - 11:22:40 10° WSW 11:26:34 25° S 11:31:22 10° SE daylight
30 Jun - 13:27:01 10° SW 13:29:43 13° SSW 13:32:49 10° S daylight
01 Jul - 06:48:30 10° SSE 06:48:36 10° SSE 06:48:42 10° SSE daylight
01 Jul - 08:47:43 10° SW 08:51:16 23° S 08:54:59 10° ESE daylight
01 Jul - 10:50:20 10° WSW 10:54:06 25° S 10:58:34 10° SE daylight
01 Jul - 12:54:28 10° SW 12:57:09 14° SSW 13:00:13 10° S daylight
02 Jul - 08:15:22 10° SW 08:18:51 22° SSE 08:22:20 10° ESE daylight
02 Jul - 10:17:59 10° WSW 10:21:39 24° S 10:25:50 10° SE daylight
02 Jul - 12:21:58 10° SW 12:24:38 14° SSW 12:27:38 10° S daylight
03 Jul - 07:42:58 10° SW 07:46:25 21° SSE 07:49:46 10° ESE daylight
03 Jul - 09:45:35 10° WSW 09:49:13 24° S 09:53:11 10° SE daylight
03 Jul - 11:49:27 10° SW 11:52:07 14° SSW 11:55:06 10° SSE daylight
04 Jul - 07:10:30 10° SSW 07:14:00 20° SSE 07:17:14 10° ESE daylight
04 Jul - 09:13:09 10° WSW 09:16:48 24° S 09:20:36 10° SE daylight
04 Jul - 11:16:57 10° SW 11:19:38 15° SSW 11:22:37 10° SSE daylight
05 Jul - 06:37:59 10° SSW 06:41:33 19° SSE 06:44:46 10° ESE daylight
05 Jul - 08:40:40 10° WSW 08:44:23 25° S 08:48:05 10° SE daylight
05 Jul - 10:44:25 10° WSW 10:47:10 16° SSW 10:50:10 10° SSE daylight
06 Jul - 06:05:24 10° SSW 06:09:06 18° SSE 06:12:19 10° ESE daylight
06 Jul - 08:08:06 10° WSW 08:11:58 25° S 08:15:37 10° SE daylight
06 Jul - 10:11:52 10° WSW 10:14:44 17° SSW 10:17:45 10° SSE daylight
07 Jul - 05:32:46 10° SSW 05:36:37 18° SSE 05:39:55 10° ESE daylight
07 Jul - 07:35:28 10° SW 07:39:32 25° S 07:43:14 10° ESE daylight
07 Jul - 09:39:16 10° WSW 09:42:18 18° SSW 09:45:24 10° SSE daylight
08 Jul - 05:00:04 10° SSW 05:04:07 18° SSE 05:07:31 10° ESE daylight
08 Jul - 07:02:46 10° SW 07:07:07 26° S 07:10:52 10° ESE daylight
08 Jul - 09:06:38 10° WSW 09:09:53 19° SSW 09:13:05 10° SSE daylight
